Location: Newark
(15.5800°N, 32.5200°E)
Time: 02:54:59
(UTC+00:00)

Hubble Space Telescope - Visible Passes

Search period start: 19 September 2020 00:00
Search period end: 29 September 2020 00:00
Orbit: 536 x 540 km, 28.5° (Epoch: 18 September)

Date Brightness Start Highest point End Pass type
(mag) Time Alt. Az. Time Alt. Az. Time Alt. Az.
19 Sep 2.9 02:27:45 11° SSW 02:30:33 21° SSE 02:33:39 10° E visible
20 Sep 2.4 02:18:06 21° S 02:19:49 28° SSE 02:23:22 10° E visible
21 Sep 1.7 02:08:25 36° S 02:09:04 38° SSE 02:12:54 10° E visible
22 Sep 1.3 01:58:40 52° SE 01:58:40 52° SE 02:02:20 10° ENE visible
23 Sep 1.9 01:48:52 42° ENE 01:48:52 42° ENE 01:51:42 10° ENE visible
24 Sep 2.7 01:39:00 27° ENE 01:39:00 27° ENE 01:41:00 10° ENE visible
24 Sep 2.4 03:15:02 10° WNW 03:18:18 22° NNW 03:21:35 10° NE visible
25 Sep 3.3 01:29:05 18° NE 01:29:05 18° NE 01:30:15 10° ENE visible
25 Sep 2.6 03:04:41 10° WNW 03:07:42 19° NNW 03:10:43 10° NE visible
26 Sep 3.8 01:19:07 12° NE 01:19:07 12° NE 01:19:27 10° NE visible
26 Sep 2.8 02:54:27 10° NW 02:57:07 17° N 02:59:52 10° NNE visible
27 Sep 2.9 02:44:26 11° NW 02:46:33 15° N 02:49:01 10° NNE visible
28 Sep 3.0 02:34:24 12° NNW 02:36:00 14° N 02:38:14 10° NNE visible
